KGRB

Austin Straubel International Airport

Airport
ICAO code
KGRB
Summary
ICAO Region
NAM
ICAO Territory
Location

Green Bay, Wisconsin,

Elevation
695 ft
Coordinates
44° 29' 31" N , 88° 7' 39" W
KCC
Airport CFIT
Altimeter Temperature Error Correction
Metar
Observation
KGRB 290653Z AUTO 18008KT 10SM OVC014 04/01 A2983 RMK AO2 SLP109 T00390011
Station
Green Bay, Austin Straubel International Airport
Date/Time
2022-11-29 06:53:00
Wind direction
180°
Wind speed
08 kts
Lowest cloud amount
overcast
Temperature
3.9°C
Dew point
1.1°C
Humidity
81%
Weather condition
n/a

Description

Austin Straubel International Airport is a public use airport located in Brown County, Wisconsin, 13 km southwest of the central business district of Green Bay.

Climatology

Humid continental climate (Köppen climate classification Dfa) - characterized by four seasons: cold, windy, snowy winters, mild springs, hot, humid summers, and crisp and relatively short autumns. Precipitation reaches its lowest in January and February and peaks in summer and latter half of spring.

Airport map

Aerial View

SKYbrary Partners:

Safety knowledge contributed by: